Location: �chenoz-la-M�line
(47.6009°N, 6.1354°E)
Time: 15:57:40
(UTC+00:00)

STARLINK-2124 - Pass Details

Date: 27 January 2021
Orbit: 379 x 380 km, 53.1° (Epoch: 04 March)

Event Time Altitude Azimuth Distance (km) Brightness Sun altitude
Exits shadow 05:50:45 - 216° (SW) 1,724 5.9 -13.1°
Reaches altitude 10° 05:51:51 10° 210° (SSW) 1,290 5.4 -12.9°
Maximum altitude 05:54:29 33° 143° (SE) 591 4.3 -12.4°
Drops below altitude 10° 05:57:06 10° 76° (ENE) 1,276 6.5 -12.0°
Sets 05:59:10 0° 66° (ENE) 2,110 7.5 -11.7°
